Year,Month,Day,Hour,Minute,Value (Times are PST for temperature in C)
2020,04,20,10,17,11.10
2020,04,20,10,18,11.10
2020,04,20,10,19,11.10
2020,04,20,10,20,11.10
2020,04,20,10,21,11.10
2020,04,20,10,22,11.10
2020,04,20,10,23,11.10
2020,04,20,10,24,11.10
2020,04,20,10,25,11.10
2020,04,20,10,26,11.10
2020,04,20,10,27,11.10
2020,04,20,10,28,11.10
2020,04,20,10,29,11.10
2020,04,20,10,30,11.10
2020,04,20,10,31,11.10
2020,04,20,10,32,11.20
2020,04,20,10,33,11.20
2020,04,20,10,34,11.20
2020,04,20,10,35,11.20
2020,04,20,10,36,11.20
2020,04,20,10,37,11.20
2020,04,20,10,38,11.10
2020,04,20,10,39,11.10
2020,04,20,10,40,11.10
2020,04,20,10,41,11.10
2020,04,20,10,42,11.20
2020,04,20,10,43,11.20
2020,04,20,10,44,11.20
2020,04,20,10,45,11.20
2020,04,20,10,46,11.30
2020,04,20,10,47,11.30
2020,04,20,10,48,11.30
2020,04,20,10,49,11.20
2020,04,20,10,50,11.20
2020,04,20,10,51,11.20
2020,04,20,10,52,11.20
2020,04,20,10,53,11.30
2020,04,20,10,54,11.30
2020,04,20,10,55,11.30
2020,04,20,10,56,11.30
2020,04,20,10,57,11.30
2020,04,20,10,58,11.30
2020,04,20,10,59,11.30
2020,04,20,11,00,11.40
2020,04,20,11,01,11.40
2020,04,20,11,02,11.40
2020,04,20,11,03,11.50
2020,04,20,11,04,11.50
2020,04,20,11,05,11.60
2020,04,20,11,06,11.60
2020,04,20,11,07,11.70
2020,04,20,11,08,11.70
2020,04,20,11,09,11.70
2020,04,20,11,10,11.70
2020,04,20,11,11,11.70
2020,04,20,11,12,11.80
2020,04,20,11,13,11.80
2020,04,20,11,14,11.80
2020,04,20,11,15,11.80
2020,04,20,11,16,11.80
2020,04,20,11,17,11.80
2020,04,20,11,18,11.90
2020,04,20,11,19,11.90
2020,04,20,11,20,11.90
2020,04,20,11,21,12.00
2020,04,20,11,22,12.00
2020,04,20,11,23,12.10
2020,04,20,11,24,12.20
2020,04,20,11,25,12.20
2020,04,20,11,26,12.20
2020,04,20,11,27,12.20
2020,04,20,11,28,12.20
2020,04,20,11,29,12.20
2020,04,20,11,30,12.20
2020,04,20,11,31,12.30
2020,04,20,11,32,12.30
2020,04,20,11,33,12.40
2020,04,20,11,34,12.40
2020,04,20,11,35,12.50
2020,04,20,11,36,12.50
2020,04,20,11,37,12.60
2020,04,20,11,38,12.60
2020,04,20,11,39,12.60
2020,04,20,11,40,12.60
2020,04,20,11,41,12.60
2020,04,20,11,42,12.60
2020,04,20,11,43,12.60
2020,04,20,11,44,12.60
2020,04,20,11,45,12.70
2020,04,20,11,46,12.60
2020,04,20,11,47,12.60
2020,04,20,11,48,12.60
2020,04,20,11,49,12.60
2020,04,20,11,50,12.60
2020,04,20,11,51,12.60
2020,04,20,11,52,12.60
2020,04,20,11,53,12.70
2020,04,20,11,54,12.70
2020,04,20,11,55,12.80
2020,04,20,11,56,12.80
2020,04,20,11,57,12.70
2020,04,20,11,58,12.70
2020,04,20,11,59,12.70
2020,04,20,12,00,12.60
2020,04,20,12,01,12.60
2020,04,20,12,02,12.60
2020,04,20,12,03,12.60
2020,04,20,12,04,12.60
2020,04,20,12,05,12.60
2020,04,20,12,06,12.70
2020,04,20,12,07,12.70
2020,04,20,12,08,12.70
2020,04,20,12,09,12.70
2020,04,20,12,10,12.70
2020,04,20,12,11,12.70
2020,04,20,12,12,12.70
2020,04,20,12,13,12.70
2020,04,20,12,14,12.70
2020,04,20,12,15,12.80
2020,04,20,12,16,12.80
2020,04,20,12,17,12.90
2020,04,20,12,18,13.00
2020,04,20,12,19,13.10
2020,04,20,12,20,13.10
2020,04,20,12,21,13.20
2020,04,20,12,22,13.20
2020,04,20,12,23,13.30
2020,04,20,12,24,13.30
2020,04,20,12,25,13.40
2020,04,20,12,26,13.50
2020,04,20,12,27,13.60
2020,04,20,12,28,13.70
2020,04,20,12,29,13.80
2020,04,20,12,30,13.90
2020,04,20,12,31,14.00
2020,04,20,12,32,14.00
2020,04,20,12,33,14.10
2020,04,20,12,34,14.10
2020,04,20,12,35,14.20
2020,04,20,12,36,14.20
2020,04,20,12,37,14.30
2020,04,20,12,38,14.30
2020,04,20,12,39,14.30
2020,04,20,12,40,14.40
2020,04,20,12,41,14.40
2020,04,20,12,42,14.50
2020,04,20,12,43,14.50
2020,04,20,12,44,14.40
2020,04,20,12,45,14.40
2020,04,20,12,46,14.40
2020,04,20,12,47,14.40
2020,04,20,12,48,14.40
2020,04,20,12,49,14.40
2020,04,20,12,50,14.40
2020,04,20,12,51,14.40
2020,04,20,12,52,14.40
2020,04,20,12,53,14.40
2020,04,20,12,54,14.40
2020,04,20,12,55,14.30
2020,04,20,12,56,14.40
2020,04,20,12,57,14.50
2020,04,20,12,58,14.60
2020,04,20,12,59,14.60
2020,04,20,13,00,14.70
2020,04,20,13,01,14.70
2020,04,20,13,02,14.70
2020,04,20,13,03,14.80
2020,04,20,13,04,14.90
2020,04,20,13,05,15.00
2020,04,20,13,06,15.10
2020,04,20,13,07,15.20
2020,04,20,13,08,15.30
2020,04,20,13,09,15.30
2020,04,20,13,10,15.30
2020,04,20,13,11,15.30
2020,04,20,13,12,15.30
2020,04,20,13,13,15.20
2020,04,20,13,14,15.10
2020,04,20,13,15,15.00
2020,04,20,13,16,15.00
2020,04,20,13,17,15.00
2020,04,20,13,18,15.00
2020,04,20,13,19,15.00
2020,04,20,13,20,15.10
2020,04,20,13,21,15.20
2020,04,20,13,22,15.30
2020,04,20,13,23,15.40
2020,04,20,13,24,15.40
2020,04,20,13,25,15.40
2020,04,20,13,26,15.40
2020,04,20,13,27,15.40
2020,04,20,13,28,15.40
2020,04,20,13,29,15.40
2020,04,20,13,30,15.30
2020,04,20,13,31,15.30
2020,04,20,13,32,15.30
2020,04,20,13,33,15.20
2020,04,20,13,34,15.20
2020,04,20,13,35,15.20
2020,04,20,13,36,15.20
2020,04,20,13,37,15.20
2020,04,20,13,38,15.30
2020,04,20,13,39,15.50
2020,04,20,13,40,15.60
2020,04,20,13,41,15.70
2020,04,20,13,42,15.70
2020,04,20,13,43,15.80
2020,04,20,13,44,15.80
2020,04,20,13,45,15.80
2020,04,20,13,46,15.80
2020,04,20,13,47,15.70
2020,04,20,13,48,15.60
2020,04,20,13,49,15.50
2020,04,20,13,50,15.40
2020,04,20,13,51,15.30
2020,04,20,13,52,15.40
2020,04,20,13,53,15.40
2020,04,20,13,54,15.50
2020,04,20,13,55,15.60
2020,04,20,13,56,15.60
2020,04,20,13,57,15.60
2020,04,20,13,58,15.70
2020,04,20,13,59,15.60
2020,04,20,14,00,15.60
2020,04,20,14,01,15.60
2020,04,20,14,02,15.60
2020,04,20,14,03,15.50
2020,04,20,14,04,15.50
2020,04,20,14,05,15.40
2020,04,20,14,06,15.50
2020,04,20,14,07,15.50
2020,04,20,14,08,15.50
2020,04,20,14,09,15.40
2020,04,20,14,10,15.40
2020,04,20,14,11,15.30
2020,04,20,14,12,15.30
2020,04,20,14,13,15.40
2020,04,20,14,14,15.40
2020,04,20,14,15,15.40
2020,04,20,14,16,15.40
2020,04,20,14,17,15.50
2020,04,20,14,18,15.50
2020,04,20,14,19,15.60
2020,04,20,14,20,15.70
2020,04,20,14,21,15.80
2020,04,20,14,22,15.80
2020,04,20,14,23,15.80
2020,04,20,14,24,15.80
2020,04,20,14,25,15.80
2020,04,20,14,26,15.80
2020,04,20,14,27,15.80
2020,04,20,14,28,15.80
2020,04,20,14,29,15.70
2020,04,20,14,30,15.80
2020,04,20,14,31,15.80
2020,04,20,14,32,15.80
2020,04,20,14,33,15.80
2020,04,20,14,34,15.70
2020,04,20,14,35,15.70
2020,04,20,14,36,15.70
2020,04,20,14,37,15.60
2020,04,20,14,38,15.50
2020,04,20,14,39,15.40
2020,04,20,14,40,15.30
2020,04,20,14,41,15.30
2020,04,20,14,42,15.20
2020,04,20,14,43,15.10
2020,04,20,14,44,15.00
2020,04,20,14,45,15.00
2020,04,20,14,46,15.00
2020,04,20,14,47,14.90
2020,04,20,14,48,14.90
2020,04,20,14,49,14.90
2020,04,20,14,50,14.90
2020,04,20,14,51,14.90
2020,04,20,14,52,14.90
2020,04,20,14,53,14.90
2020,04,20,14,54,15.00
2020,04,20,14,55,15.10
2020,04,20,14,56,15.10
2020,04,20,14,57,15.20
2020,04,20,14,58,15.20
2020,04,20,14,59,15.20
2020,04,20,15,00,15.20
2020,04,20,15,01,15.20
2020,04,20,15,02,15.20
2020,04,20,15,03,15.30
2020,04,20,15,04,15.30
2020,04,20,15,05,15.30
2020,04,20,15,06,15.30
2020,04,20,15,07,15.30
2020,04,20,15,08,15.30
2020,04,20,15,09,15.30
2020,04,20,15,10,15.30
2020,04,20,15,11,15.40
2020,04,20,15,12,15.40
2020,04,20,15,13,15.50
2020,04,20,15,14,15.50
2020,04,20,15,15,15.50
2020,04,20,15,16,15.50
2020,04,20,15,17,15.50
2020,04,20,15,18,15.50
2020,04,20,15,19,15.50
2020,04,20,15,20,15.40
2020,04,20,15,21,15.40
2020,04,20,15,22,15.30
2020,04,20,15,23,15.30
2020,04,20,15,24,15.30
2020,04,20,15,25,15.30
2020,04,20,15,26,15.30
2020,04,20,15,27,15.40
2020,04,20,15,28,15.30
2020,04,20,15,29,15.30
2020,04,20,15,30,15.30
2020,04,20,15,31,15.40
2020,04,20,15,32,15.40
2020,04,20,15,33,15.30
2020,04,20,15,34,15.20
2020,04,20,15,35,15.20
2020,04,20,15,36,15.10
2020,04,20,15,37,15.10
2020,04,20,15,38,15.10
2020,04,20,15,39,15.10
2020,04,20,15,40,15.20
2020,04,20,15,41,15.20
2020,04,20,15,42,15.20
2020,04,20,15,43,15.20
2020,04,20,15,44,15.30
2020,04,20,15,45,15.40
2020,04,20,15,46,15.40
2020,04,20,15,47,15.50
2020,04,20,15,48,15.60
2020,04,20,15,49,15.70
2020,04,20,15,50,15.80
2020,04,20,15,51,16.00
2020,04,20,15,52,16.10
2020,04,20,15,53,16.20
2020,04,20,15,54,16.30
2020,04,20,15,55,16.40
2020,04,20,15,56,16.40
2020,04,20,15,57,16.40
2020,04,20,15,58,16.50
2020,04,20,15,59,16.50
2020,04,20,16,00,16.50
2020,04,20,16,01,16.50
2020,04,20,16,02,16.50
2020,04,20,16,03,16.60
2020,04,20,16,04,16.70
2020,04,20,16,05,16.80
2020,04,20,16,06,16.80
2020,04,20,16,07,16.90
2020,04,20,16,08,16.90
2020,04,20,16,09,16.80
2020,04,20,16,10,16.80
2020,04,20,16,11,16.80
2020,04,20,16,12,16.80
2020,04,20,16,13,16.70
2020,04,20,16,14,16.70
2020,04,20,16,15,16.60
2020,04,20,16,16,16.50
2020,04,20,16,17,16.40
2020,04,20,16,18,16.30
2020,04,20,16,19,16.20
2020,04,20,16,20,16.10
2020,04,20,16,21,16.00
2020,04,20,16,22,15.90
2020,04,20,16,23,15.80
2020,04,20,16,24,15.70
2020,04,20,16,25,15.60
2020,04,20,16,26,15.50
2020,04,20,16,27,15.40
2020,04,20,16,28,15.40
2020,04,20,16,29,15.40
2020,04,20,16,30,15.50
2020,04,20,16,31,15.50
2020,04,20,16,32,15.60
2020,04,20,16,33,15.60
2020,04,20,16,34,15.70
2020,04,20,16,35,15.80
2020,04,20,16,36,15.80
2020,04,20,16,37,16.00
2020,04,20,16,38,16.10
2020,04,20,16,39,16.20
2020,04,20,16,40,16.20
2020,04,20,16,41,16.30
2020,04,20,16,42,16.20
2020,04,20,16,43,16.20
2020,04,20,16,44,16.20
2020,04,20,16,45,16.30
2020,04,20,16,46,16.30
2020,04,20,16,47,16.30
2020,04,20,16,48,16.30
2020,04,20,16,49,16.30
2020,04,20,16,50,16.30
2020,04,20,16,51,16.20
2020,04,20,16,52,16.20
2020,04,20,16,53,16.10
2020,04,20,16,54,15.90
2020,04,20,16,55,15.80
2020,04,20,16,56,15.80
2020,04,20,16,57,15.70
2020,04,20,16,58,15.60
2020,04,20,16,59,15.50
2020,04,20,17,00,15.50
2020,04,20,17,01,15.40
2020,04,20,17,02,15.40
2020,04,20,17,03,15.50
2020,04,20,17,04,15.60
2020,04,20,17,05,15.60
2020,04,20,17,06,15.60
2020,04,20,17,07,15.70
2020,04,20,17,08,15.70
2020,04,20,17,09,15.60
2020,04,20,17,10,15.60
2020,04,20,17,11,15.50
2020,04,20,17,12,15.50
2020,04,20,17,13,15.40
2020,04,20,17,14,15.40
2020,04,20,17,15,15.40
2020,04,20,17,16,15.40
2020,04,20,17,17,15.30
2020,04,20,17,18,15.20
2020,04,20,17,19,15.10
2020,04,20,17,20,15.10
2020,04,20,17,21,15.00
2020,04,20,17,22,15.00
2020,04,20,17,23,14.90
2020,04,20,17,24,14.90
2020,04,20,17,25,14.80
2020,04,20,17,26,14.80
2020,04,20,17,27,14.70
2020,04,20,17,28,14.70
2020,04,20,17,29,14.70
2020,04,20,17,30,14.70
2020,04,20,17,31,14.70
2020,04,20,17,32,14.60
2020,04,20,17,33,14.60
2020,04,20,17,34,14.60
2020,04,20,17,35,14.50
2020,04,20,17,36,14.50
2020,04,20,17,37,14.40
2020,04,20,17,38,14.40
2020,04,20,17,39,14.30
2020,04,20,17,40,14.30
2020,04,20,17,41,14.20
2020,04,20,17,42,14.20
2020,04,20,17,43,14.20
2020,04,20,17,44,14.20
2020,04,20,17,45,14.20
2020,04,20,17,46,14.20
2020,04,20,17,47,14.20
2020,04,20,17,48,14.20
2020,04,20,17,49,14.20
2020,04,20,17,50,14.20
2020,04,20,17,51,14.20
2020,04,20,17,52,14.20
2020,04,20,17,53,14.20
2020,04,20,17,54,14.20
2020,04,20,17,55,14.20
2020,04,20,17,56,14.20
2020,04,20,17,57,14.20
2020,04,20,17,58,14.20
2020,04,20,17,59,14.20
2020,04,20,18,00,14.30
2020,04,20,18,01,14.30
2020,04,20,18,02,14.30
2020,04,20,18,03,14.40
2020,04,20,18,04,14.40
2020,04,20,18,05,14.30
2020,04,20,18,06,14.40
2020,04,20,18,07,14.40
2020,04,20,18,08,14.40
2020,04,20,18,09,14.40
2020,04,20,18,10,14.40
2020,04,20,18,11,14.50
2020,04,20,18,12,14.50
2020,04,20,18,13,14.50
2020,04,20,18,14,14.60
2020,04,20,18,15,14.60
2020,04,20,18,16,14.60
2020,04,20,18,17,14.70
2020,04,20,18,18,14.70
2020,04,20,18,19,14.70
2020,04,20,18,20,14.80
2020,04,20,18,21,14.80
2020,04,20,18,22,14.80
2020,04,20,18,23,14.80
2020,04,20,18,24,14.80
2020,04,20,18,25,14.80
2020,04,20,18,26,14.80
2020,04,20,18,27,14.90
2020,04,20,18,28,14.90
2020,04,20,18,29,14.90
2020,04,20,18,30,14.90
2020,04,20,18,31,14.90
2020,04,20,18,32,14.90
2020,04,20,18,33,14.90
2020,04,20,18,34,14.90
2020,04,20,18,35,14.90
2020,04,20,18,36,14.90
2020,04,20,18,37,14.90
2020,04,20,18,38,14.90
2020,04,20,18,39,14.90
2020,04,20,18,40,14.90
2020,04,20,18,41,14.90
2020,04,20,18,42,14.90
2020,04,20,18,43,14.90
2020,04,20,18,44,14.90
2020,04,20,18,45,14.90
2020,04,20,18,46,14.90
2020,04,20,18,47,14.90
2020,04,20,18,48,14.90
2020,04,20,18,49,14.90
2020,04,20,18,50,14.90
2020,04,20,18,51,14.90
2020,04,20,18,52,14.90
2020,04,20,18,53,14.90
2020,04,20,18,54,14.80
2020,04,20,18,55,14.80
2020,04,20,18,56,14.80
2020,04,20,18,57,14.80
2020,04,20,18,58,14.80
2020,04,20,18,59,14.80
2020,04,20,19,00,14.80
2020,04,20,19,01,14.80
2020,04,20,19,02,14.80
2020,04,20,19,03,14.80
2020,04,20,19,04,14.80
2020,04,20,19,05,14.80
2020,04,20,19,06,14.80
2020,04,20,19,07,14.80
2020,04,20,19,08,14.70
2020,04,20,19,09,14.70
2020,04,20,19,10,14.70
2020,04,20,19,11,14.60
2020,04,20,19,12,14.60
2020,04,20,19,13,14.40
2020,04,20,19,14,14.30
2020,04,20,19,15,14.20
2020,04,20,19,16,14.20
2020,04,20,19,17,14.10
2020,04,20,19,18,14.00
2020,04,20,19,19,13.90
2020,04,20,19,20,13.90
2020,04,20,19,21,13.80
2020,04,20,19,22,13.80
2020,04,20,19,23,13.80
2020,04,20,19,24,13.70
2020,04,20,19,25,13.70
2020,04,20,19,26,13.70
2020,04,20,19,27,13.70
2020,04,20,19,28,13.60
2020,04,20,19,29,13.60
2020,04,20,19,30,13.60
2020,04,20,19,31,13.60
2020,04,20,19,32,13.50
2020,04,20,19,33,13.50
2020,04,20,19,34,13.50
2020,04,20,19,35,13.50
2020,04,20,19,36,13.40
2020,04,20,19,37,13.40
2020,04,20,19,38,13.40
2020,04,20,19,39,13.40
2020,04,20,19,40,13.40
2020,04,20,19,41,13.40
2020,04,20,19,42,13.40
2020,04,20,19,43,13.40
2020,04,20,19,44,13.40
2020,04,20,19,45,13.30
2020,04,20,19,46,13.30
2020,04,20,19,47,13.30
2020,04,20,19,48,13.30
2020,04,20,19,49,13.30
2020,04,20,19,50,13.30
2020,04,20,19,51,13.30
2020,04,20,19,52,13.30
2020,04,20,19,53,13.30
2020,04,20,19,54,13.30
2020,04,20,19,55,13.30
